When you browse on this site, cookies collect data to enhance your experience and personalize the content and advertising you see.
Visit our Privacy Policy to learn more. By continuing to use the site, you agree to this use of cookies and data.
  • In Hungary
  • List of Countries
  • For 7 days
  • Water Temperature
  • Weather Map
  • News
  • Weather Widgets
  • user-avatar
    Login

    Hourly Weather Bindura

    Today, 4 June, Thursday

    Time Temperature Precipitation Wind Pressure Humidity
    00:00 +12°C° 0 mm 1 mps 670 mmHg 89%
    01:00 +10°C° 0 mm 0 mps 670 mmHg 92%
    02:00 +10°C° 0 mm 0 mps 670 mmHg 95%
    03:00 +10°C° 0 mm 0 mps 670 mmHg 95%
    04:00 +10°C° 0 mm 0 mps 670 mmHg 95%
    05:00 +10°C° 0 mm 0 mps 670 mmHg 96%
    06:00 +11°C° 0 mm 0 mps 671 mmHg 89%
    07:00 +13°C° 0 mm 0 mps 672 mmHg 83%
    08:00 +16°C° 0 mm 0 mps 673 mmHg 75%
    09:00 +20°C° 0 mm 1 mps 673 mmHg 65%
    10:00 +21°C° 0 mm 2 mps 673 mmHg 55%
    11:00 +24°C° 0 mm 3 mps 674 mmHg 45%
    12:00 +25°C° 0 mm 3 mps 673 mmHg 43%
    13:00 +25°C° 0 mm 3 mps 673 mmHg 40%
    14:00 +26°C° 0 mm 2 mps 672 mmHg 36%
    15:00 +25°C° 0 mm 2 mps 672 mmHg 41%
    16:00 +24°C° 0 mm 2 mps 671 mmHg 46%
    17:00 +22°C° 0 mm 3 mps 671 mmHg 51%
    18:00 +19°C° 0 mm 2 mps 671 mmHg 63%
    19:00 +18°C° 0 mm 1 mps 671 mmHg 74%
    20:00 +14°C° 0 mm 1 mps 671 mmHg 86%
    21:00 +13°C° 0 mm 0 mps 671 mmHg 88%
    22:00 +12°C° 0 mm 0 mps 671 mmHg 90%
    23:00 +12°C° 0 mm 0 mps 671 mmHg 92%

    Tomorrow, 5 June, Friday

    Time Temperature Precipitation Wind Pressure Humidity
    00:00 +11°C° 0 mm 0 mps 671 mmHg 93%
    01:00 +11°C° 0 mm 0 mps 671 mmHg 93%
    02:00 +11°C° 0 mm 0 mps 670 mmHg 94%
    03:00 +10°C° 0 mm 0 mps 670 mmHg 94%
    04:00 +10°C° 0 mm 0 mps 670 mmHg 95%
    05:00 +10°C° 0 mm 0 mps 670 mmHg 95%
    06:00 +11°C° 0 mm 0 mps 671 mmHg 88%
    07:00 +13°C° 0 mm 0 mps 672 mmHg 81%
    08:00 +15°C° 0 mm 0 mps 673 mmHg 74%
    09:00 +20°C° 0 mm 1 mps 673 mmHg 62%
    10:00 +23°C° 0 mm 1 mps 674 mmHg 51%
    11:00 +25°C° 0 mm 1 mps 674 mmHg 40%
    12:00 +26°C° 0 mm 1 mps 673 mmHg 36%
    13:00 +28°C° 0 mm 1 mps 673 mmHg 32%
    14:00 +29°C° 0 mm 1 mps 672 mmHg 29%
    15:00 +27°C° 0 mm 1 mps 672 mmHg 32%
    16:00 +25°C° 0 mm 1 mps 672 mmHg 36%
    17:00 +24°C° 0 mm 1 mps 671 mmHg 39%
    18:00 +22°C° 0 mm 1 mps 671 mmHg 43%
    19:00 +21°C° 0 mm 1 mps 672 mmHg 47%
    20:00 +20°C° 0 mm 1 mps 672 mmHg 51%
    21:00 +19°C° 0 mm 1 mps 672 mmHg 53%
    22:00 +19°C° 0 mm 1 mps 672 mmHg 55%
    23:00 +18°C° 0 mm 1 mps 672 mmHg 57%

    Day after tomorrow, 6 June, Saturday

    Time Temperature Precipitation Wind Pressure Humidity
    00:00 +16°C° 0 mm 1 mps 672 mmHg 62%
    01:00 +16°C° 0 mm 1 mps 672 mmHg 67%
    02:00 +15°C° 0 mm 1 mps 672 mmHg 72%
    03:00 +14°C° 0 mm 0 mps 672 mmHg 73%
    04:00 +13°C° 0 mm 0 mps 672 mmHg 75%
    05:00 +13°C° 0 mm 0 mps 671 mmHg 76%
    06:00 +14°C° 0 mm 0 mps 672 mmHg 72%
    07:00 +15°C° 0 mm 0 mps 673 mmHg 69%
    08:00 +16°C° 0 mm 0 mps 673 mmHg 65%
    09:00 +21°C° 0 mm 1 mps 674 mmHg 55%
    10:00 +24°C° 0 mm 1 mps 674 mmHg 46%
    11:00 +27°C° 0 mm 1 mps 674 mmHg 36%
    12:00 +26°C° 0 mm 1 mps 674 mmHg 37%
    13:00 +25°C° 0 mm 1 mps 673 mmHg 37%
    14:00 +25°C° 0 mm 1 mps 672 mmHg 38%
    15:00 +23°C° 0.1 mm 1 mps 671 mmHg 46%
    16:00 +21°C° 0.1 mm 1 mps 671 mmHg 54%
    17:00 +19°C° 0.1 mm 1 mps 671 mmHg 62%
    18:00 +19°C° 0 mm 1 mps 671 mmHg 65%
    19:00 +18°C° 0 mm 1 mps 672 mmHg 67%
    20:00 +18°C° 0 mm 1 mps 672 mmHg 70%
    21:00 +16°C° 0 mm 1 mps 672 mmHg 70%
    22:00 +16°C° 0 mm 1 mps 672 mmHg 71%
    23:00 +15°C° 0 mm 2 mps 672 mmHg 71%

    7 June, Sunday

    Time Temperature Precipitation Wind Pressure Humidity
    00:00 +14°C° 0 mm 2 mps 672 mmHg 74%
    01:00 +13°C° 0 mm 1 mps 672 mmHg 77%
    02:00 +12°C° 0 mm 1 mps 671 mmHg 81%
    03:00 +11°C° 0 mm 1 mps 671 mmHg 85%
    04:00 +11°C° 0 mm 1 mps 671 mmHg 88%
    05:00 +10°C° 0 mm 1 mps 670 mmHg 92%
    06:00 +11°C° 0 mm 1 mps 671 mmHg 85%
    07:00 +13°C° 0 mm 1 mps 672 mmHg 78%
    08:00 +14°C° 0 mm 1 mps 672 mmHg 71%
    09:00 +19°C° 0 mm 1 mps 673 mmHg 58%
    10:00 +22°C° 0 mm 1 mps 673 mmHg 45%
    11:00 +25°C° 0 mm 1 mps 674 mmHg 32%
    12:00 +26°C° 0 mm 2 mps 674 mmHg 29%
    13:00 +27°C° 0 mm 2 mps 673 mmHg 26%
    14:00 +27°C° 0 mm 2 mps 673 mmHg 24%
    15:00 +26°C° 0 mm 2 mps 672 mmHg 27%
    16:00 +25°C° 0 mm 2 mps 672 mmHg 31%
    17:00 +23°C° 0 mm 2 mps 671 mmHg 34%
    18:00 +20°C° 0 mm 2 mps 671 mmHg 45%
    19:00 +17°C° 0 mm 2 mps 671 mmHg 55%
    20:00 +15°C° 0 mm 1 mps 671 mmHg 66%
    21:00 +14°C° 0 mm 1 mps 671 mmHg 70%
    22:00 +13°C° 0 mm 1 mps 671 mmHg 75%
    23:00 +12°C° 0 mm 1 mps 671 mmHg 79%

    8 June, Monday

    Time Temperature Precipitation Wind Pressure Humidity
    00:00 +11°C° 0 mm 1 mps 671 mmHg 81%
    01:00 +10°C° 0 mm 0 mps 670 mmHg 84%
    02:00 +9°C° 0 mm 0 mps 670 mmHg 87%
    03:00 +10°C° 0 mm 1 mps 670 mmHg 88%
    04:00 +10°C° 0 mm 1 mps 670 mmHg 90%
    05:00 +9°C° 0 mm 1 mps 670 mmHg 92%
    06:00 +11°C° 0 mm 1 mps 670 mmHg 83%
    07:00 +13°C° 0 mm 1 mps 671 mmHg 74%
    08:00 +15°C° 0 mm 1 mps 672 mmHg 65%
    09:00 +19°C° 0 mm 1 mps 672 mmHg 54%
    10:00 +23°C° 0 mm 1 mps 673 mmHg 44%
    11:00 +26°C° 0 mm 1 mps 673 mmHg 33%
    12:00 +27°C° 0 mm 1 mps 673 mmHg 30%
    13:00 +27°C° 0 mm 1 mps 672 mmHg 26%
    14:00 +28°C° 0 mm 2 mps 672 mmHg 23%
    15:00 +26°C° 0 mm 2 mps 671 mmHg 27%
    16:00 +25°C° 0 mm 2 mps 671 mmHg 30%
    17:00 +22°C° 0 mm 3 mps 670 mmHg 34%
    18:00 +20°C° 0 mm 2 mps 670 mmHg 43%
    19:00 +18°C° 0 mm 1 mps 670 mmHg 52%
    20:00 +15°C° 0 mm 1 mps 670 mmHg 61%
    21:00 +14°C° 0 mm 1 mps 670 mmHg 64%
    22:00 +13°C° 0 mm 1 mps 670 mmHg 68%
    23:00 +13°C° 0 mm 1 mps 670 mmHg 72%

    9 June, Tuesday

    Time Temperature Precipitation Wind Pressure Humidity
    00:00 +12°C° 0 mm 1 mps 670 mmHg 75%
    01:00 +12°C° 0 mm 1 mps 670 mmHg 78%
    02:00 +11°C° 0 mm 1 mps 669 mmHg 82%
    03:00 +11°C° 0 mm 1 mps 670 mmHg 84%
    04:00 +11°C° 0 mm 1 mps 670 mmHg 87%
    05:00 +10°C° 0 mm 1 mps 670 mmHg 90%
    06:00 +11°C° 0 mm 0 mps 670 mmHg 81%
    07:00 +13°C° 0 mm 0 mps 671 mmHg 72%
    08:00 +15°C° 0 mm 0 mps 672 mmHg 63%
    09:00 +20°C° 0 mm 1 mps 672 mmHg 53%
    10:00 +23°C° 0 mm 1 mps 673 mmHg 43%
    11:00 +26°C° 0 mm 1 mps 673 mmHg 33%
    12:00 +26°C° 0 mm 2 mps 673 mmHg 30%
    13:00 +27°C° 0 mm 2 mps 672 mmHg 27%
    14:00 +28°C° 0 mm 2 mps 671 mmHg 24%
    15:00 +26°C° 0 mm 2 mps 671 mmHg 28%
    16:00 +25°C° 0 mm 3 mps 670 mmHg 31%
    17:00 +22°C° 0 mm 3 mps 670 mmHg 34%
    18:00 +20°C° 0 mm 2 mps 670 mmHg 41%
    19:00 +18°C° 0 mm 1 mps 670 mmHg 48%
    20:00 +15°C° 0 mm 1 mps 670 mmHg 54%
    21:00 +14°C° 0 mm 1 mps 670 mmHg 58%
    22:00 +13°C° 0 mm 1 mps 670 mmHg 62%
    23:00 +12°C° 0 mm 1 mps 669 mmHg 66%
    Show more